When you browse on this site, cookies collect data to enhance your experience and personalize the content and advertising you see.
Visit our Privacy Policy to learn more. By continuing to use the site, you agree to this use of cookies and data.
  • In Spain
  • List of Countries
  • For 7 days
  • Water Temperature
  • Satellite Maps
  • Weather Map
  • Weather Widgets
  • user-avatar
    Login

    Hourly Weather Chervonyi Lyman

    Today, 19 May, Sunday

    Time Temperature Precipitation Wind Pressure Humidity
    00:00 +16°C° 0 mm 3 mps 751 mmHg 66%
    01:00 +16°C° 0 mm 3 mps 751 mmHg 67%
    02:00 +14°C° 0 mm 3 mps 751 mmHg 67%
    03:00 +13°C° 0 mm 3 mps 750 mmHg 68%
    04:00 +13°C° 0 mm 3 mps 750 mmHg 70%
    05:00 +13°C° 0 mm 3 mps 751 mmHg 72%
    06:00 +13°C° 0 mm 3 mps 751 mmHg 74%
    07:00 +15°C° 0 mm 4 mps 751 mmHg 68%
    08:00 +18°C° 0 mm 4 mps 751 mmHg 62%
    09:00 +20°C° 0 mm 5 mps 751 mmHg 56%
    10:00 +21°C° 0 mm 5 mps 751 mmHg 52%
    11:00 +23°C° 0 mm 5 mps 751 mmHg 49%
    12:00 +25°C° 0 mm 5 mps 751 mmHg 45%
    13:00 +25°C° 0 mm 5 mps 751 mmHg 44%
    14:00 +26°C° 0 mm 4 mps 751 mmHg 43%
    15:00 +26°C° 0 mm 4 mps 751 mmHg 42%
    16:00 +26°C° 0 mm 4 mps 751 mmHg 45%
    17:00 +25°C° 0 mm 4 mps 752 mmHg 48%
    18:00 +25°C° 0 mm 3 mps 752 mmHg 51%
    19:00 +22°C° 0 mm 3 mps 752 mmHg 56%
    20:00 +20°C° 0 mm 3 mps 752 mmHg 61%
    21:00 +19°C° 0 mm 3 mps 753 mmHg 66%
    22:00 +18°C° 0 mm 3 mps 753 mmHg 68%
    23:00 +17°C° 0 mm 3 mps 753 mmHg 70%

    Tomorrow, 20 May, Monday

    Time Temperature Precipitation Wind Pressure Humidity
    00:00 +16°C° 0 mm 3 mps 753 mmHg 71%
    01:00 +16°C° 0 mm 3 mps 753 mmHg 71%
    02:00 +14°C° 0 mm 3 mps 754 mmHg 71%
    03:00 +15°C° 0 mm 2 mps 754 mmHg 71%
    04:00 +15°C° 0 mm 2 mps 754 mmHg 72%
    05:00 +15°C° 0 mm 2 mps 754 mmHg 73%
    06:00 +15°C° 0 mm 2 mps 755 mmHg 75%
    07:00 +17°C° 0 mm 3 mps 755 mmHg 70%
    08:00 +18°C° 0 mm 3 mps 755 mmHg 65%
    09:00 +20°C° 0 mm 3 mps 755 mmHg 60%
    10:00 +21°C° 0 mm 3 mps 756 mmHg 56%
    11:00 +22°C° 0 mm 3 mps 756 mmHg 52%
    12:00 +23°C° 0 mm 4 mps 756 mmHg 48%
    13:00 +25°C° 0 mm 4 mps 756 mmHg 46%
    14:00 +25°C° 0 mm 4 mps 756 mmHg 44%
    15:00 +25°C° 0 mm 4 mps 756 mmHg 42%
    16:00 +25°C° 0 mm 4 mps 756 mmHg 45%
    17:00 +24°C° 0 mm 3 mps 755 mmHg 48%
    18:00 +24°C° 0 mm 3 mps 755 mmHg 50%
    19:00 +21°C° 0 mm 3 mps 756 mmHg 55%
    20:00 +19°C° 0 mm 3 mps 756 mmHg 60%
    21:00 +17°C° 0 mm 3 mps 756 mmHg 64%
    22:00 +16°C° 0 mm 3 mps 756 mmHg 65%
    23:00 +14°C° 0 mm 3 mps 757 mmHg 66%

    Day after tomorrow, 21 May, Tuesday

    Time Temperature Precipitation Wind Pressure Humidity
    00:00 +14°C° 0 mm 3 mps 757 mmHg 66%
    01:00 +13°C° 0 mm 3 mps 757 mmHg 68%
    02:00 +12°C° 0 mm 3 mps 757 mmHg 70%
    03:00 +12°C° 0 mm 3 mps 757 mmHg 71%
    04:00 +12°C° 0 mm 3 mps 757 mmHg 72%
    05:00 +12°C° 0 mm 3 mps 757 mmHg 73%
    06:00 +12°C° 0 mm 3 mps 757 mmHg 73%
    07:00 +14°C° 0 mm 3 mps 758 mmHg 68%
    08:00 +17°C° 0 mm 4 mps 758 mmHg 63%
    09:00 +19°C° 0 mm 4 mps 758 mmHg 58%
    10:00 +20°C° 0 mm 4 mps 758 mmHg 54%
    11:00 +21°C° 0 mm 4 mps 757 mmHg 50%
    12:00 +23°C° 0 mm 4 mps 757 mmHg 46%
    13:00 +23°C° 0 mm 4 mps 757 mmHg 45%
    14:00 +25°C° 0 mm 4 mps 757 mmHg 44%
    15:00 +25°C° 0 mm 4 mps 757 mmHg 43%
    16:00 +25°C° 0 mm 4 mps 756 mmHg 46%
    17:00 +23°C° 0 mm 4 mps 756 mmHg 49%
    18:00 +24°C° 0 mm 3 mps 755 mmHg 52%
    19:00 +21°C° 0 mm 3 mps 755 mmHg 57%
    20:00 +20°C° 0 mm 3 mps 755 mmHg 62%
    21:00 +18°C° 0 mm 3 mps 755 mmHg 66%
    22:00 +17°C° 0 mm 3 mps 755 mmHg 68%
    23:00 +16°C° 0 mm 3 mps 755 mmHg 70%

    22 May, Wednesday

    Time Temperature Precipitation Wind Pressure Humidity
    00:00 +16°C° 0 mm 3 mps 755 mmHg 72%
    01:00 +14°C° 0 mm 3 mps 755 mmHg 72%
    02:00 +14°C° 0 mm 3 mps 755 mmHg 72%
    03:00 +13°C° 0 mm 3 mps 754 mmHg 72%
    04:00 +13°C° 0 mm 3 mps 754 mmHg 71%
    05:00 +13°C° 0 mm 3 mps 754 mmHg 70%
    06:00 +13°C° 0 mm 3 mps 754 mmHg 69%
    07:00 +15°C° 0 mm 4 mps 754 mmHg 63%
    08:00 +17°C° 0 mm 5 mps 753 mmHg 56%
    09:00 +20°C° 0 mm 6 mps 753 mmHg 49%
    10:00 +21°C° 0 mm 6 mps 753 mmHg 47%
    11:00 +22°C° 0 mm 6 mps 753 mmHg 44%
    12:00 +22°C° 0 mm 6 mps 753 mmHg 42%
    13:00 +22°C° 0 mm 6 mps 752 mmHg 44%
    14:00 +22°C° 0 mm 5 mps 752 mmHg 47%
    15:00 +22°C° 0 mm 5 mps 752 mmHg 50%
    16:00 +21°C° 0 mm 5 mps 752 mmHg 57%
    17:00 +20°C° 0 mm 4 mps 751 mmHg 63%
    18:00 +20°C° 0 mm 4 mps 751 mmHg 69%
    19:00 +19°C° 0 mm 3 mps 751 mmHg 76%
    20:00 +18°C° 0 mm 3 mps 750 mmHg 82%
    21:00 +16°C° 0 mm 3 mps 750 mmHg 88%
    22:00 +16°C° 0 mm 3 mps 750 mmHg 90%
    23:00 +16°C° 0 mm 3 mps 750 mmHg 92%

    23 May, Thursday

    Time Temperature Precipitation Wind Pressure Humidity
    00:00 +14°C° 0 mm 3 mps 749 mmHg 94%
    01:00 +14°C° 0 mm 3 mps 749 mmHg 94%
    02:00 +14°C° 0 mm 3 mps 749 mmHg 94%
    03:00 +14°C° 0 mm 3 mps 749 mmHg 94%
    04:00 +14°C° 0.5 mm 3 mps 749 mmHg 94%
    05:00 +14°C° 0.5 mm 3 mps 748 mmHg 94%
    06:00 +16°C° 0.5 mm 3 mps 748 mmHg 94%
    07:00 +17°C° 0 mm 4 mps 748 mmHg 84%
    08:00 +19°C° 0 mm 4 mps 748 mmHg 74%
    09:00 +21°C° 0 mm 5 mps 748 mmHg 65%
    10:00 +22°C° 0.2 mm 5 mps 748 mmHg 61%
    11:00 +23°C° 0.2 mm 6 mps 748 mmHg 56%
    12:00 +24°C° 0.2 mm 6 mps 747 mmHg 52%
    13:00 +24°C° 0.4 mm 6 mps 747 mmHg 52%
    14:00 +24°C° 0.4 mm 6 mps 747 mmHg 52%
    15:00 +24°C° 0.4 mm 6 mps 747 mmHg 51%
    16:00 +24°C° 0.2 mm 6 mps 746 mmHg 53%
    17:00 +23°C° 0.2 mm 5 mps 746 mmHg 56%
    18:00 +23°C° 0.2 mm 5 mps 746 mmHg 58%
    19:00 +21°C° 0.3 mm 4 mps 746 mmHg 63%
    20:00 +20°C° 0.3 mm 4 mps 746 mmHg 68%
    21:00 +18°C° 0.3 mm 4 mps 746 mmHg 73%
    22:00 +18°C° 0 mm 4 mps 746 mmHg 76%
    23:00 +18°C° 0 mm 4 mps 746 mmHg 78%

    24 May, Friday

    Time Temperature Precipitation Wind Pressure Humidity
    00:00 +18°C° 0 mm 4 mps 746 mmHg 81%
    01:00 +17°C° 0.1 mm 4 mps 746 mmHg 82%
    02:00 +17°C° 0.1 mm 4 mps 746 mmHg 84%
    03:00 +15°C° 0.1 mm 4 mps 746 mmHg 85%
    04:00 +15°C° 0 mm 4 mps 746 mmHg 85%
    05:00 +15°C° 0 mm 4 mps 746 mmHg 86%
    06:00 +15°C° 0 mm 4 mps 746 mmHg 87%
    07:00 +17°C° 0 mm 5 mps 746 mmHg 81%
    08:00 +20°C° 0 mm 5 mps 746 mmHg 75%
    09:00 +21°C° 0 mm 5 mps 746 mmHg 69%
    10:00 +22°C° 0.1 mm 6 mps 746 mmHg 65%
    11:00 +23°C° 0.1 mm 6 mps 746 mmHg 60%
    12:00 +24°C° 0.1 mm 6 mps 746 mmHg 56%
    13:00 +24°C° 0.4 mm 6 mps 746 mmHg 55%
    14:00 +26°C° 0.4 mm 6 mps 746 mmHg 55%
    15:00 +26°C° 0.4 mm 6 mps 746 mmHg 54%
    16:00 +24°C° 0.2 mm 6 mps 746 mmHg 57%
    17:00 +25°C° 0.2 mm 5 mps 746 mmHg 59%
    18:00 +25°C° 0.2 mm 4 mps 746 mmHg 61%
    19:00 +22°C° 0.1 mm 4 mps 746 mmHg 66%
    20:00 +21°C° 0.1 mm 3 mps 746 mmHg 71%
    21:00 +19°C° 0.1 mm 2 mps 747 mmHg 76%
    22:00 +19°C° 0 mm 2 mps 747 mmHg 78%
    23:00 +18°C° 0 mm 2 mps 746 mmHg 81%
    Show more